TimeCDT,TemperatureF,Dew PointF,Humidity,Sea Level PressureIn,VisibilityMPH,Wind Direction,Wind SpeedMPH,Gust SpeedMPH,PrecipitationIn,Events,Conditions,WindDirDegrees,DateUTC
12:56 AM,68.0,66.9,96,30.06,9.0,Calm,Calm,-,N/A,,Clear,0,2013-05-27 05:56:00
1:56 AM,69.1,66.9,93,30.05,7.0,Calm,Calm,-,N/A,,Clear,0,2013-05-27 06:56:00
2:56 AM,69.1,68.0,96,30.04,7.0,Variable,3.5,-,N/A,,Scattered Clouds,0,2013-05-27 07:56:00
3:05 AM,69.8,68.0,94,30.05,8.0,Calm,Calm,-,N/A,,Mostly Cloudy,0,2013-05-27 08:05:00
3:54 AM,69.8,68.0,94,30.05,5.0,Calm,Calm,-,N/A,,Scattered Clouds,0,2013-05-27 08:54:00
3:56 AM,69.1,68.0,96,30.04,5.0,Calm,Calm,-,N/A,,Partly Cloudy,0,2013-05-27 08:56:00
4:25 AM,68.0,66.2,94,30.04,3.0,SSE,3.5,-,N/A,,Scattered Clouds,150,2013-05-27 09:25:00
4:34 AM,69.8,68.0,94,30.04,2.5,Calm,Calm,-,N/A,,Mostly Cloudy,0,2013-05-27 09:34:00
4:52 AM,69.8,68.0,94,30.04,1.5,Calm,Calm,-,N/A,,Overcast,0,2013-05-27 09:52:00
4:56 AM,69.1,68.0,96,30.03,1.5,Calm,Calm,-,N/A,,Overcast,0,2013-05-27 09:56:00
5:13 AM,69.8,68.0,94,30.04,2.0,Calm,Calm,-,N/A,,Overcast,0,2013-05-27 10:13:00
5:20 AM,69.8,68.0,94,30.04,1.8,Calm,Calm,-,N/A,,Overcast,0,2013-05-27 10:20:00
5:56 AM,69.1,68.0,96,30.04,1.5,Calm,Calm,-,N/A,,Overcast,0,2013-05-27 10:56:00
6:10 AM,69.8,68.0,94,30.05,0.5,Variable,3.5,-,N/A,Fog,Fog,0,2013-05-27 11:10:00
6:56 AM,69.1,69.1,100,30.05,0.8,Variable,3.5,-,N/A,,Overcast,0,2013-05-27 11:56:00
7:17 AM,69.8,69.8,100,30.06,1.0,Calm,Calm,-,N/A,,Overcast,0,2013-05-27 12:17:00
7:56 AM,70.0,70.0,100,30.06,2.5,Variable,4.6,-,N/A,,Overcast,0,2013-05-27 12:56:00
8:05 AM,71.6,69.8,94,30.07,4.0,South,5.8,-,N/A,,Overcast,170,2013-05-27 13:05:00
8:56 AM,72.0,70.0,93,30.08,10.0,Variable,4.6,-,N/A,,Overcast,0,2013-05-27 13:56:00
9:16 AM,73.4,71.6,94,30.08,10.0,Variable,4.6,-,N/A,,Overcast,0,2013-05-27 14:16:00
9:35 AM,75.2,71.6,89,30.08,10.0,South,4.6,-,N/A,,Overcast,190,2013-05-27 14:35:00
9:53 AM,78.8,69.8,74,30.08,10.0,Variable,4.6,-,N/A,,Mostly Cloudy,0,2013-05-27 14:53:00
9:56 AM,78.1,69.1,74,30.07,10.0,South,9.2,-,N/A,,Mostly Cloudy,170,2013-05-27 14:56:00
10:08 AM,77.0,68.0,74,30.08,10.0,South,9.2,16.1,N/A,,Partly Cloudy,180,2013-05-27 15:08:00
10:56 AM,81.0,68.0,65,30.06,10.0,South,8.1,-,N/A,,Scattered Clouds,170,2013-05-27 15:56:00
11:56 AM,84.9,66.9,55,30.06,10.0,South,8.1,-,N/A,,Mostly Cloudy,190,2013-05-27 16:56:00
12:56 PM,84.9,66.0,53,30.04,10.0,SSW,8.1,-,N/A,,Partly Cloudy,200,2013-05-27 17:56:00
1:56 PM,87.1,64.0,46,30.02,10.0,Variable,6.9,-,N/A,,Partly Cloudy,0,2013-05-27 18:56:00
2:56 PM,86.0,64.0,48,30.00,10.0,South,8.1,-,N/A,,Partly Cloudy,180,2013-05-27 19:56:00
3:56 PM,88.0,64.0,45,29.98,10.0,SSW,8.1,-,N/A,,Partly Cloudy,210,2013-05-27 20:56:00
4:56 PM,88.0,63.0,43,29.96,10.0,Variable,5.8,16.1,N/A,,Scattered Clouds,0,2013-05-27 21:56:00
5:56 PM,86.0,61.0,43,29.95,10.0,South,8.1,-,N/A,,Clear,190,2013-05-27 22:56:00
6:56 PM,84.0,64.0,51,29.94,10.0,Variable,5.8,-,N/A,,Partly Cloudy,0,2013-05-27 23:56:00
7:56 PM,79.0,64.9,62,29.95,10.0,Variable,3.5,-,N/A,,Clear,0,2013-05-28 00:56:00
8:56 PM,75.0,64.9,71,29.96,10.0,Calm,Calm,-,N/A,,Clear,0,2013-05-28 01:56:00
9:56 PM,72.0,66.0,81,29.98,10.0,Calm,Calm,-,N/A,,Clear,0,2013-05-28 02:56:00
10:56 PM,72.0,66.9,84,29.99,10.0,South,3.5,-,N/A,,Clear,170,2013-05-28 03:56:00
11:56 PM,72.0,68.0,87,29.99,10.0,South,3.5,-,N/A,,Clear,170,2013-05-28 04:56:00